Theta_e
346 347 348 349 350 349 350 349 349 349 348 349 349 349 349 349 350 349 350 350 350 350 350 350 350 349 349 348 347 347 345 343 342 341 339 338 336 335 336 337 336 335 335 335 333 332 331 332 332 333 337 337 335 333 334 335 336 339 344 344 344 344 344
344 346 347 348 349 350 349 349 348 349 348 349 349 349 349 349 349 350 349 350 350 350 350 350 350 350 348 348 348 348 346 344 342 342 342 340 337 336 336 336 337 336 335 334 332 331 331 333 333 333 337 339 337 335 335 335 335 338 342 343 343 342 342
344 345 346 348 349 349 349 349 348 348 348 349 349 349 349 349 349 350 349 350 350 350 350 350 349 349 348 349 349 349 347 345 343 343 343 341 338 336 336 337 337 335 335 334 332 330 329 331 333 335 336 339 339 338 337 336 336 336 339 342 343 342 341
345 345 345 347 348 348 349 350 349 349 349 348 349 349 350 350 349 350 350 350 350 350 350 350 350 349 349 349 349 349 347 345 344 342 342 340 339 338 337 336 336 336 335 333 332 330 329 330 334 336 337 337 338 339 338 337 337 336 337 339 340 340 339
345 345 345 346 347 349 349 350 350 349 349 349 350 350 350 350 350 350 350 350 350 350 350 350 350 350 349 349 350 349 348 346 344 342 341 341 340 340 337 336 335 335 334 333 332 331 330 330 333 335 336 336 336 337 338 337 337 337 336 337 338 338 338
346 345 346 346 347 348 349 349 349 349 349 349 350 349 350 350 350 350 350 350 350 350 350 350 350 350 349 350 350 350 349 347 345 343 342 341 342 341 338 335 334 334 334 333 332 331 329 330 332 334 334 334 334 335 336 336 336 337 337 337 337 337 338
346 346 346 347 347 347 349 349 350 349 349 349 349 350 350 350 351 350 351 351 350 351 350 350 350 350 350 350 350 350 350 348 346 344 343 343 343 342 339 336 335 334 334 334 333 331 330 330 331 333 332 332 332 333 334 335 336 337 337 338 337 337 337
344 346 346 347 347 348 349 349 349 350 350 350 349 350 350 350 351 351 351 351 351 351 350 350 350 350 350 350 350 351 350 349 348 346 345 344 344 342 340 339 337 336 336 335 333 331 330 330 331 332 332 331 332 333 334 334 335 335 337 336 337 337 337
343 345 346 347 347 348 349 349 350 349 349 350 350 350 350 350 351 351 351 351 351 351 351 351 350 350 350 350 350 351 350 350 348 347 346 346 344 343 342 340 339 338 337 335 333 331 331 330 330 331 331 331 331 331 333 334 334 334 334 335 335 335 335
344 344 345 346 346 347 348 349 350 350 350 350 350 350 350 350 351 351 351 352 351 351 351 351 351 350 350 351 351 351 350 350 350 349 348 347 345 343 341 340 340 339 338 336 334 333 331 331 330 329 330 330 329 329 331 332 333 333 334 333 333 334 333
343 344 345 346 346 347 348 349 351 350 350 351 350 350 350 350 351 351 351 352 352 352 352 351 351 351 351 351 351 351 351 350 350 350 350 348 347 344 342 340 340 339 338 337 336 333 332 331 331 330 329 329 328 328 329 330 331 332 332 332 332 333 333
343 344 344 345 347 348 348 350 350 350 350 350 350 351 350 351 351 351 351 351 352 352 352 352 352 352 352 351 351 352 351 352 351 351 350 350 349 347 343 341 339 338 337 337 336 333 332 332 331 329 329 329 328 328 328 330 330 331 332 332 332 332 332
343 344 345 346 346 347 348 349 350 350 350 350 350 351 351 351 351 351 352 352 352 353 352 353 353 352 352 352 352 352 352 352 352 352 351 351 350 349 347 343 341 339 337 336 336 334 332 331 330 330 329 329 328 328 329 329 330 331 332 332 332 332 332
344 345 344 346 346 347 348 350 350 350 350 350 351 351 351 352 352 352 352 352 352 353 352 352 352 352 352 353 352 352 352 352 352 352 351 352 352 351 350 346 344 341 339 337 336 334 332 331 330 330 329 329 329 329 329 329 330 330 331 332 332 332 332
344 345 345 346 347 347 349 349 350 350 350 351 351 351 351 351 352 352 353 353 352 353 353 353 353 353 353 353 353 352 353 352 353 353 353 353 353 353 352 350 347 345 342 340 338 335 333 332 331 331 330 330 330 330 330 330 330 331 331 332 332 332 332
344 344 345 346 346 348 348 349 350 349 351 351 350 351 351 351 352 352 352 353 353 353 354 353 354 354 354 354 353 353 353 354 354 353 353 353 354 354 354 352 350 348 346 344 341 338 335 334 333 332 331 331 330 330 330 330 330 331 331 332 332 332 332
344 344 346 346 346 348 348 349 350 349 350 351 351 351 350 350 351 352 352 353 353 353 354 354 355 355 355 354 354 354 354 354 354 354 354 354 354 355 355 354 352 351 349 348 344 341 338 336 335 334 333 332 331 331 331 331 330 331 331 332 331 332 333
344 345 345 346 347 348 347 349 349 350 350 351 350 350 350 350 350 351 352 352 353 353 354 355 355 355 355 355 355 355 355 355 355 355 355 355 355 356 356 355 355 353 352 350 348 345 342 339 336 334 335 334 333 332 332 332 331 331 331 331 332 332 333
343 345 345 346 346 347 348 349 348 349 349 349 350 349 348 348 349 350 350 351 352 353 354 354 355 356 356 355 355 356 355 355 355 355 355 356 356 357 357 357 356 355 354 352 351 349 346 342 338 335 336 335 335 335 334 333 332 332 332 332 333 333 334
342 344 345 345 346 347 347 348 348 349 349 348 348 348 348 349 348 348 350 351 352 353 353 355 355 356 356 355 355 355 355 355 355 355 356 357 358 358 358 358 358 357 356 355 354 352 350 345 341 339 337 337 337 337 336 335 334 333 333 334 334 334 336
342 344 343 344 345 346 346 347 347 348 348 349 349 349 349 350 350 350 350 351 352 352 353 354 355 355 354 353 354 355 355 356 356 356 357 358 359 359 359 360 360 359 359 357 356 355 353 350 345 341 339 338 339 339 338 337 336 335 335 334 335 337 339
343 343 342 344 344 344 346 347 347 348 348 349 349 349 350 349 350 350 351 350 351 352 352 353 354 354 354 353 355 355 356 357 358 358 359 359 359 360 360 361 361 361 361 360 358 358 356 353 349 344 342 342 341 341 339 337 336 337 336 336 337 340 342
343 342 343 344 344 344 346 346 347 347 348 348 348 349 349 350 349 350 350 350 350 350 351 353 354 355 355 355 356 356 357 357 357 358 359 359 360 361 362 362 362 362 363 361 361 360 358 354 350 347 345 344 343 341 340 337 337 338 338 338 340 343 344
350 347 346 345 345 345 345 346 347 347 347 348 349 349 349 349 349 349 350 350 349 349 350 352 353 355 356 355 356 355 355 356 356 358 359 360 362 362 362 363 363 363 363 363 362 362 359 357 354 351 348 346 342 341 340 338 337 339 339 340 342 344 345
357 356 352 350 349 348 348 347 347 348 349 349 349 350 350 350 350 350 350 349 350 350 350 351 353 354 355 354 354 354 355 356 357 360 361 362 363 362 363 363 363 363 363 363 363 363 361 359 358 356 354 350 347 345 344 341 339 341 341 342 343 346 346
359 359 358 357 355 354 355 354 352 353 354 354 354 354 353 352 352 352 352 351 351 351 352 352 352 353 353 354 354 355 356 358 360 361 362 362 363 362 363 363 363 363 363 364 364 363 363 362 360 358 357 356 353 351 348 346 344 343 343 343 344 345 347
357 359 359 359 358 357 358 357 356 358 357 357 359 359 357 357 357 356 356 356 356 355 355 355 355 355 355 356 357 357 359 360 362 362 362 363 363 363 363 364 364 364 364 364 363 363 363 362 361 360 359 357 357 355 353 351 350 348 347 346 346 346 348
354 355 355 355 356 357 357 357 357 358 358 358 359 359 358 359 359 359 360 360 360 360 360 360 359 359 359 360 360 361 361 362 362 363 363 363 363 364 364 364 363 364 364 363 364 363 363 362 362 362 360 359 358 357 356 355 353 353 352 351 350 350 350
353 353 352 349 348 348 349 352 352 350 351 352 354 355 356 358 358 359 359 359 359 360 360 360 361 360 360 361 361 361 363 363 363 363 364 364 364 364 364 364 363 364 364 364 363 363 363 363 362 362 361 360 359 359 358 357 356 355 354 354 354 353 353
352 353 352 350 347 342 338 337 337 336 336 337 340 342 345 348 352 354 356 357 357 358 358 357 358 357 357 357 357 357 358 359 360 361 362 362 363 364 363 363 363 363 363 363 364 363 363 363 362 362 362 361 360 360 359 358 358 358 358 357 356 355 355
350 351 352 352 350 348 343 337 335 333 332 332 332 333 333 336 339 343 347 350 352 354 356 355 355 355 354 354 354 355 354 354 355 356 357 358 359 360 361 361 361 362 363 363 364 363 363 363 363 362 362 361 360 360 360 359 359 359 359 358 358 358 358
348 349 349 350 350 349 347 344 340 337 337 337 336 335 334 335 337 339 343 346 347 348 351 351 352 353 353 353 353 353 353 353 353 353 353 355 355 356 357 359 359 360 361 361 363 363 363 363 363 362 362 362 361 361 360 361 360 361 361 361 361 361 360
348 348 348 348 348 347 346 344 341 340 340 339 339 339 338 338 339 342 345 347 349 350 350 350 351 351 352 351 352 351 352 352 353 353 353 353 354 355 356 358 359 360 360 362 362 362 362 362 363 362 362 362 361 362 361 362 362 362 363 363 363 363 362
347 348 348 348 348 347 345 342 342 342 340 340 340 340 339 338 338 338 340 342 345 347 349 351 353 355 354 352 351 351 352 352 353 354 353 353 354 355 356 357 359 360 361 362 362 362 362 363 363 363 362 362 362 363 363 364 364 365 365 365 365 365 365
345 346 346 346 346 346 344 343 342 341 340 340 341 340 340 340 339 338 338 337 337 339 342 347 352 356 358 357 354 352 352 353 353 355 354 354 354 354 355 357 358 360 361 361 362 363 363 363 363 363 363 364 364 365 365 365 366 366 366 366 365 365 364
343 344 345 345 345 344 344 343 343 343 342 342 341 341 341 341 342 342 341 339 337 337 337 340 345 353 358 360 359 357 356 356 355 355 355 354 354 354 355 355 356 359 361 362 362 363 364 365 365 366 366 366 366 367 367 367 367 367 366 366 365 365 363
344 344 344 344 344 344 343 343 343 344 344 343 341 340 341 342 343 343 342 341 341 341 341 342 344 348 355 360 362 362 359 358 358 358 357 357 357 356 356 356 358 360 362 363 364 365 366 366 367 367 366 367 367 367 367 367 366 366 366 367 366 365 364
344 344 344 344 343 343 343 343 343 343 343 341 339 338 340 341 342 341 340 341 342 344 347 350 350 351 355 361 365 365 362 360 360 361 360 360 360 360 360 360 360 361 363 365 366 367 367 368 368 367 366 367 367 368 367 367 367 367 367 366 366 365 365
Wind_Speed
45 44 45 46 47 47 49 52 53 53 54 54 54 54 54 54 54 54 54 54 53 52 50 48 46 45 44 43 43 42 42 41 41 41 40 38 36 35 33 32 31 30 29 27 24 22 21 22 22 21 20 20 19 19 20 19 19 18 18 18 18 17 15
42 43 44 46 46 48 50 50 50 51 53 53 54 55 55 55 55 56 56 55 54 53 51 50 48 46 44 43 43 43 43 42 42 41 41 40 38 36 34 33 32 31 29 27 24 22 20 21 22 21 21 20 18 18 20 20 20 19 19 19 19 18 16
41 43 44 46 47 50 51 50 50 52 53 53 54 55 56 57 57 57 57 56 56 54 52 51 49 47 45 43 44 44 44 44 43 42 42 40 39 37 35 34 33 32 30 28 25 22 20 20 20 21 21 20 19 18 19 20 21 20 20 20 20 19 18
42 44 46 48 51 53 52 51 52 53 54 54 55 56 58 58 58 58 57 57 56 55 54 53 50 48 46 45 45 44 44 44 44 43 42 41 39 38 37 36 34 33 31 29 27 24 21 20 20 21 20 20 20 19 18 19 21 21 21 21 21 20 19
42 45 46 48 50 50 49 51 52 53 54 55 55 56 57 57 57 56 57 57 56 55 54 52 51 49 48 46 45 44 44 43 43 42 42 41 40 39 39 37 35 34 33 30 28 26 23 22 21 21 21 20 20 19 19 19 20 22 22 22 22 21 20
42 44 45 47 48 48 48 51 53 54 55 56 56 56 55 55 55 55 56 56 55 55 53 52 51 50 49 48 47 45 44 44 43 42 42 41 40 39 39 38 37 35 34 32 30 27 25 24 23 23 22 21 21 21 20 20 20 22 23 23 23 22 22
43 44 47 49 49 50 50 52 53 54 55 54 54 53 52 53 54 55 55 55 55 54 53 53 52 51 50 48 47 46 45 44 44 43 43 42 41 40 39 38 38 36 35 34 32 29 27 26 24 24 24 23 23 22 22 22 22 22 23 24 25 24 23
45 46 49 50 50 51 51 51 52 53 52 51 50 50 51 52 53 54 54 54 54 54 53 53 52 51 50 48 47 46 44 43 43 43 43 43 42 41 40 39 38 37 36 35 34 31 29 27 26 26 25 25 25 24 24 24 23 23 23 24 25 25 24
46 47 51 52 51 51 51 51 53 52 51 50 50 51 52 52 52 53 54 54 53 53 53 52 51 50 49 48 47 45 43 42 42 42 43 43 44 43 41 40 39 38 37 35 34 33 31 30 28 28 28 27 26 26 25 25 25 25 25 25 25 25 25
44 46 49 51 51 51 50 50 50 50 50 50 50 51 51 51 52 52 52 53 52 53 53 52 51 50 49 48 46 44 43 42 42 42 43 43 43 43 42 41 39 38 37 36 35 35 33 32 31 30 30 30 29 28 27 27 26 26 26 26 26 26 25
42 45 47 47 48 47 46 46 48 50 50 51 52 51 51 51 51 51 52 52 52 52 52 52 51 50 49 48 46 45 44 42 41 42 42 42 43 43 42 41 39 38 36 36 36 35 34 34 34 33 33 32 31 30 29 29 28 27 27 27 27 27 27
39 44 45 45 45 44 44 45 48 51 52 52 53 52 51 51 51 51 51 51 52 52 51 51 51 50 50 49 48 47 45 43 42 41 41 41 41 42 42 41 40 38 37 36 35 35 35 35 35 35 34 34 33 32 31 31 30 29 29 28 28 28 28
40 43 44 45 45 44 44 46 48 51 52 52 53 52 51 51 50 50 51 51 52 51 51 51 50 50 50 49 48 47 45 44 42 40 39 39 39 40 41 41 41 40 38 37 36 35 35 35 36 35 35 35 34 34 33 32 32 31 31 30 30 30 30
38 41 42 42 43 43 45 47 48 50 52 52 52 51 50 50 50 50 51 51 51 51 51 51 50 50 50 49 48 48 46 44 42 40 39 38 37 38 40 41 42 41 39 38 37 36 36 36 36 35 36 36 36 36 35 35 34 34 33 32 32 32 32
35 38 39 39 41 44 46 48 49 51 52 51 50 49 48 48 49 49 50 50 50 51 51 50 50 50 49 49 49 47 46 44 43 41 40 38 38 38 39 41 41 41 41 40 39 37 36 36 36 36 37 37 37 37 37 37 37 36 35 34 33 33 33
35 37 39 41 43 45 47 49 50 52 52 50 50 49 49 49 49 50 50 50 50 50 50 49 49 49 49 49 48 47 45 44 43 42 40 39 38 37 38 40 40 41 41 41 40 38 36 36 37 37 38 38 38 38 39 39 38 37 36 35 34 34 34
34 36 39 43 45 47 48 48 49 50 50 50 50 50 51 51 51 50 50 50 50 49 48 47 47 48 48 48 47 46 45 44 43 42 41 40 38 37 37 38 40 40 41 41 40 38 37 37 37 38 39 39 39 39 40 40 39 37 36 35 35 35 35
33 36 40 43 46 46 46 46 46 47 48 50 50 51 52 52 51 50 50 50 49 47 46 46 46 46 46 46 45 45 45 44 43 42 41 40 39 37 36 37 39 40 41 41 40 39 38 38 38 38 39 40 41 41 41 41 39 38 37 36 36 36 36
36 39 41 44 45 45 45 46 48 50 50 50 51 51 51 51 51 51 50 49 47 45 44 44 44 44 44 44 44 44 43 43 42 41 40 40 38 37 36 37 38 40 41 41 40 39 39 38 38 39 39 40 41 42 42 41 40 39 38 37 36 36 37
36 39 41 42 43 44 46 47 48 49 49 49 49 49 48 49 49 48 47 46 45 44 43 42 42 42 43 43 43 43 42 41 41 40 39 38 37 37 37 37 37 38 39 40 40 40 39 38 38 39 40 41 42 42 42 42 41 40 39 38 37 37 37
28 32 34 36 38 40 42 43 44 44 45 45 46 46 46 46 46 44 43 43 43 42 42 41 41 41 41 41 41 41 40 40 40 39 37 36 36 36 36 35 35 36 37 38 39 39 38 37 37 38 39 40 41 42 43 42 41 40 39 39 38 38 38
21 26 29 30 33 35 36 38 40 40 40 41 41 42 42 42 42 42 41 40 40 40 40 40 40 40 40 40 40 39 39 38 38 37 36 35 36 36 35 34 34 34 34 35 36 36 36 36 36 37 38 39 40 42 43 41 40 40 39 38 38 38 38
18 22 24 25 27 28 30 32 33 33 34 35 36 37 38 38 38 38 38 38 38 38 38 39 40 40 39 39 38 37 36 36 36 35 35 35 36 36 34 32 32 32 32 33 33 33 33 33 33 35 36 38 39 40 41 40 38 38 39 38 38 38 38
23 24 23 24 25 25 25 26 26 26 27 28 30 32 33 35 36 36 37 37 36 36 37 38 39 40 40 39 37 36 35 35 34 34 34 34 35 34 32 31 31 31 31 32 31 29 28 28 29 31 33 35 37 38 39 38 37 38 38 38 38 38 38
32 31 29 28 28 26 25 25 24 23 24 24 25 27 28 29 30 31 33 33 34 35 36 37 37 38 39 38 37 35 34 34 35 34 33 33 33 32 31 30 30 30 31 31 30 28 26 26 28 29 30 32 33 35 37 37 36 37 37 37 37 37 37
34 36 37 35 33 32 31 30 29 28 26 24 22 21 21 22 22 24 26 27 28 30 32 33 34 34 35 37 38 37 35 35 35 34 33 32 31 30 30 30 30 31 32 32 31 29 28 28 28 29 29 31 32 33 34 35 34 34 35 35 35 35 35
32 34 37 37 36 37 36 34 32 30 28 25 22 19 16 16 18 21 23 25 26 29 31 32 33 34 35 37 39 40 39 37 36 35 33 32 31 31 31 31 31 32 32 31 31 31 30 29 29 29 30 30 31 32 32 33 32 32 32 32 33 33 33
30 31 32 32 32 33 33 32 30 28 26 23 21 20 17 16 17 19 19 21 23 26 28 30 32 34 36 38 39 40 40 40 38 37 35 34 34 34 35 34 33 33 33 33 33 32 32 31 31 31 31 31 31 31 31 31 31 31 31 31 31 32 33
28 28 28 28 27 27 27 27 25 23 21 19 17 17 16 16 17 17 17 17 18 18 19 20 22 25 28 31 33 35 37 38 38 38 37 36 36 36 36 36 35 35 35 35 35 34 34 33 33 33 33 33 32 32 31 30 30 30 30 31 31 32 32
26 26 25 25 24 22 23 24 22 20 19 16 14 14 13 14 15 15 15 15 15 15 15 15 16 16 17 19 21 24 26 28 30 32 34 34 35 36 37 36 36 36 36 36 36 36 36 35 35 35 35 34 33 32 31 29 28 28 29 29 30 30 31
23 24 23 22 21 20 20 20 20 18 16 14 12 11 10 10 11 12 13 13 14 14 14 15 15 15 15 15 16 17 18 19 20 23 25 28 30 32 34 35 36 36 36 36 37 37 37 36 36 36 35 34 34 32 30 29 28 27 28 28 29 29 29
20 21 21 21 19 18 17 18 17 16 14 12 10 7 6 6 7 8 9 10 12 13 14 15 15 15 15 15 16 16 16 17 18 19 20 23 25 27 28 29 31 32 33 34 36 36 37 36 36 36 35 35 34 32 30 28 27 27 28 27 28 28 27
18 19 19 19 18 16 16 16 16 15 13 12 9 6 4 2 3 4 5 7 8 10 11 12 13 14 14 14 15 16 17 17 18 18 20 22 24 24 24 25 27 29 31 33 34 35 36 36 36 35 35 34 33 31 29 26 26 27 26 25 25 25 25
17 17 17 17 17 16 16 16 16 15 13 12 10 7 4 1 1 4 6 8 10 10 10 10 11 11 12 13 14 15 16 16 17 19 21 23 24 23 23 24 25 27 28 29 31 32 33 33 33 32 31 31 30 29 27 25 25 25 24 23 23 22 21
15 15 15 16 16 16 16 17 16 15 14 12 10 7 4 2 3 4 6 9 11 13 13 12 11 10 10 10 11 12 14 16 17 19 21 23 24 24 24 25 25 26 26 26 27 28 29 29 29 28 26 26 26 25 24 23 22 21 21 20 19 18 18
14 15 15 14 14 14 15 15 15 14 13 12 11 8 6 5 4 5 6 8 10 12 13 14 12 10 9 9 8 9 12 15 16 18 19 21 23 23 24 26 26 26 26 25 25 26 25 25 24 22 20 20 20 20 20 20 19 19 19 19 18 17 17
11 13 14 13 12 12 12 12 12 12 11 11 11 10 9 9 8 7 7 7 8 9 10 11 11 9 8 8 7 7 9 11 14 15 17 19 21 22 23 25 25 26 25 25 25 24 23 22 20 17 16 17 18 18 18 17 17 18 18 18 18 18 18
8 9 10 9 10 10 10 10 10 11 11 11 11 12 12 11 10 9 8 7 6 6 6 6 7 6 7 8 7 6 7 9 11 13 15 17 19 20 22 23 24 24 25 24 23 22 20 20 18 17 18 18 19 19 18 17 19 19 18 17 17 18 19
Wind_Direction
203 206 206 207 208 207 208 207 206 205 206 207 208 209 209 209 210 210 211 213 215 217 219 219 221 222 223 223 223 224 225 226 226 227 228 228 228 227 227 229 231 233 234 234 234 234 234 235 234 230 224 223 223 224 227 229 228 226 227 231 233 234 235
202 205 205 206 207 208 210 209 206 206 206 208 208 208 209 210 210 210 212 213 215 218 219 219 220 222 224 225 225 226 226 227 227 227 229 230 229 228 228 229 231 234 236 236 236 236 237 237 234 230 226 224 222 222 226 229 229 226 227 230 233 235 235
202 204 204 205 206 209 210 208 207 207 207 208 208 208 210 210 211 211 212 213 215 216 218 219 221 222 224 225 226 227 228 228 228 228 229 230 230 229 228 229 231 234 237 238 237 238 238 237 234 229 227 227 225 224 225 228 228 227 226 228 232 235 236
202 203 203 205 207 209 208 207 207 207 207 208 209 210 210 211 212 212 213 214 215 215 216 218 221 222 224 225 226 227 229 229 229 229 230 231 230 230 230 230 231 233 236 237 238 239 238 236 233 229 227 228 227 226 226 227 228 228 227 228 232 235 237
202 203 203 205 207 208 207 206 207 207 208 209 210 211 211 211 211 211 212 215 216 217 218 219 220 222 223 225 226 228 230 230 230 230 229 230 231 232 232 232 232 234 235 237 238 238 237 235 232 229 226 226 227 227 227 227 227 228 228 229 232 235 237
202 202 203 205 206 207 206 207 208 208 208 209 210 211 211 210 211 211 212 213 215 217 218 218 219 221 223 224 226 228 230 231 231 231 231 230 231 233 233 233 233 235 236 238 238 237 236 235 232 229 228 228 229 230 229 228 227 228 229 231 233 234 237
202 202 203 205 205 207 207 207 207 208 209 209 209 209 210 210 211 212 212 213 214 215 216 217 219 221 223 225 227 229 230 232 232 232 233 232 233 234 233 234 234 235 236 238 238 236 235 235 233 231 231 231 232 232 231 229 228 228 229 232 234 235 237
203 202 204 205 205 206 206 205 206 207 208 208 208 208 209 210 211 211 212 213 214 214 215 217 218 220 223 225 227 229 231 233 233 234 234 234 235 235 235 235 234 235 236 236 237 237 235 235 235 234 234 233 233 233 232 230 229 230 231 232 234 235 237
204 204 205 206 206 206 206 205 205 206 206 206 207 208 209 210 211 211 213 213 213 214 215 217 219 221 223 225 227 229 231 232 234 234 235 235 236 236 236 235 235 235 235 235 236 237 236 236 237 237 238 237 236 234 233 233 231 231 232 233 234 234 236
203 204 206 206 205 205 205 203 202 203 204 205 206 208 208 209 210 211 212 213 213 214 215 217 219 221 223 225 228 230 231 232 234 234 236 237 237 238 237 236 236 235 235 235 235 236 237 238 239 240 241 241 240 238 237 236 235 234 234 235 235 236 236
200 203 205 204 204 203 201 200 199 201 203 204 205 207 208 209 210 210 212 213 214 215 216 216 218 220 222 225 227 229 230 232 233 235 236 238 238 239 238 237 236 236 235 235 235 236 237 238 240 240 241 242 241 240 239 239 238 238 238 238 238 238 239
198 202 203 202 201 199 198 198 198 201 203 204 205 207 207 208 209 210 212 213 215 216 216 216 218 219 222 224 225 228 229 231 232 234 236 238 239 240 239 238 236 236 236 236 236 237 238 239 239 240 240 241 241 241 241 241 241 241 241 241 241 241 242
197 200 201 200 198 196 196 197 198 201 203 204 205 206 207 208 209 210 211 213 215 216 216 217 218 219 221 223 225 227 229 231 232 234 236 238 240 240 240 239 238 237 237 237 238 239 239 239 239 239 240 241 242 243 243 244 244 244 243 243 243 244 244
195 198 198 197 195 194 195 196 198 200 203 205 205 205 206 207 209 210 211 213 214 215 216 217 219 220 221 223 225 227 229 231 232 234 235 238 240 241 241 240 239 239 239 239 239 240 240 240 239 240 241 242 244 245 245 246 246 246 246 246 245 246 246
192 193 193 193 192 194 196 197 198 200 203 204 203 204 205 207 209 210 211 213 214 215 216 217 218 220 221 222 225 227 229 231 232 234 235 237 239 241 242 241 240 240 240 240 240 241 241 241 241 242 243 244 245 246 247 248 248 247 247 247 248 248 249
189 190 189 190 192 195 197 198 199 200 202 202 202 203 205 207 209 210 211 213 214 215 216 216 217 219 219 222 225 228 230 231 232 233 234 236 238 241 243 242 241 240 240 241 241 242 242 242 243 244 244 245 246 247 248 248 248 249 249 250 251 251 253
188 188 188 190 193 196 198 199 199 200 201 201 202 204 206 209 210 211 211 213 213 214 215 215 217 218 220 224 227 229 229 230 232 233 234 235 237 241 243 243 242 241 241 242 242 243 243 244 245 245 245 247 247 248 249 249 249 250 250 252 252 253 255
186 187 189 191 193 195 196 197 198 200 201 202 203 205 208 210 211 211 212 212 213 214 214 215 217 219 222 226 228 228 229 230 232 233 234 236 237 240 243 244 244 243 242 242 242 243 244 244 245 246 247 248 249 249 250 250 250 251 252 253 254 255 256
186 188 191 193 193 194 195 197 199 202 203 204 205 208 211 213 213 214 214 213 212 213 213 215 217 219 223 227 227 229 230 232 233 235 236 238 239 240 243 244 245 244 244 243 243 244 245 245 246 247 247 249 250 250 252 252 252 253 253 255 255 256 257
189 191 193 193 194 195 196 198 200 202 204 206 209 211 212 213 215 216 215 213 212 213 213 215 217 219 224 228 229 231 233 234 235 237 239 240 241 242 243 244 246 246 246 245 245 244 245 246 246 247 248 249 251 252 253 254 255 256 256 257 258 258 259
190 191 192 192 193 194 195 197 198 201 204 206 208 210 210 212 213 214 214 214 214 214 215 216 218 221 226 230 231 232 233 234 236 238 240 241 242 242 243 245 246 247 246 246 246 246 247 247 248 249 249 251 252 253 254 255 256 257 258 259 260 261 261
185 187 188 189 191 192 193 195 197 200 203 205 206 208 209 210 212 213 215 216 216 216 217 218 219 222 227 230 231 232 233 234 236 238 240 241 241 241 242 244 246 246 246 246 246 247 248 248 249 250 251 252 253 254 255 256 257 258 259 260 261 262 262
163 171 175 179 182 185 187 191 195 199 201 203 205 208 210 211 212 214 215 217 218 219 219 220 220 223 227 230 232 234 235 236 237 239 240 240 240 240 241 243 245 246 245 245 245 246 247 248 249 250 252 253 253 254 255 256 257 258 259 261 261 261 262
132 145 155 160 166 170 175 182 187 191 196 200 203 208 212 213 215 216 216 218 220 221 222 222 223 224 227 231 235 237 238 239 239 240 240 240 241 242 243 244 245 245 245 245 245 247 249 250 252 253 254 254 254 255 256 257 258 258 259 261 261 261 262
113 125 134 143 152 156 159 165 169 173 180 187 194 202 209 212 215 218 219 222 224 225 227 229 228 229 230 233 237 240 240 241 241 240 241 242 243 245 246 247 247 246 246 246 247 249 251 252 253 253 254 255 255 256 257 258 259 260 261 262 262 262 263
102 113 120 127 135 139 142 148 153 155 160 166 173 186 198 203 208 215 220 224 226 229 232 234 234 236 236 237 238 238 238 240 241 242 243 244 246 248 249 249 249 247 247 248 249 251 251 251 253 254 255 256 256 257 258 259 260 261 262 263 264 263 264
96 106 113 118 125 130 134 138 140 142 144 146 150 158 169 183 194 203 212 218 221 224 228 231 233 236 237 237 237 238 238 240 241 244 246 247 249 250 249 250 249 249 249 251 251 252 252 252 253 254 255 256 257 258 259 260 262 263 264 264 265 264 264
94 99 106 112 120 127 131 131 132 133 133 135 141 146 148 159 171 179 190 200 207 214 221 227 231 235 237 237 238 238 240 241 242 245 247 248 249 249 249 250 250 250 251 252 253 254 254 254 254 254 255 256 257 258 260 261 263 265 265 266 266 265 265
89 93 99 105 111 119 126 128 127 127 127 131 141 148 152 160 166 167 173 181 188 197 206 215 223 230 235 238 239 240 242 243 244 246 247 248 249 249 250 250 250 250 251 252 252 254 255 255 255 254 255 256 256 258 259 261 263 265 266 267 267 266 266
82 85 90 95 100 109 118 123 122 122 124 129 138 149 158 168 174 179 183 187 191 195 200 205 212 218 225 231 236 240 242 244 245 246 246 247 247 247 248 248 249 250 250 251 252 252 253 255 255 254 254 255 256 258 260 262 264 265 266 267 267 267 267
76 80 83 86 90 97 106 113 117 119 121 122 128 139 150 163 176 186 193 200 207 212 216 219 221 224 227 230 235 241 244 246 246 246 246 245 244 244 244 244 246 247 248 249 250 251 252 253 254 255 256 256 258 260 261 263 265 266 266 266 266 266 266
71 76 79 81 83 88 96 103 109 113 114 114 116 124 136 152 172 185 197 209 217 221 226 231 234 236 236 237 240 242 244 246 248 248 248 246 244 245 244 244 245 246 247 247 248 249 250 252 253 254 256 257 259 261 263 265 266 266 266 265 265 264 263
65 70 73 75 78 81 87 95 98 99 102 101 97 96 109 142 181 202 217 228 232 232 232 235 240 244 244 242 242 241 240 241 242 243 244 245 245 245 245 245 245 245 246 246 247 248 249 250 251 253 255 257 260 261 263 264 263 263 264 264 263 263 262
57 63 66 70 73 74 76 80 82 84 87 86 81 75 67 37 288 263 257 254 251 248 246 243 244 250 254 251 247 243 241 239 237 237 238 240 241 240 241 243 243 243 245 247 248 249 250 251 252 254 257 260 261 262 261 260 259 260 262 262 262 262 260
50 54 57 60 63 65 67 69 70 71 74 75 73 69 58 24 328 299 283 272 263 258 256 253 249 251 260 262 255 245 239 236 235 234 234 235 235 234 235 237 239 240 242 245 247 250 252 254 257 259 262 264 264 262 260 259 259 260 261 261 259 256 253
45 50 51 52 55 58 59 60 61 63 67 70 71 67 55 35 10 342 313 292 277 266 261 260 257 254 259 268 265 247 236 233 232 231 231 231 231 231 232 234 235 236 238 240 243 246 249 252 256 260 262 262 259 257 257 258 259 259 256 254 252 249 246
38 46 49 50 52 54 53 55 58 59 59 60 59 56 46 32 18 359 338 316 295 276 266 264 262 257 257 265 266 252 240 236 234 232 230 230 231 232 233 233 232 232 234 236 239 242 244 246 247 247 247 246 247 248 249 249 249 250 250 250 248 247 245
32 44 49 49 51 53 52 54 56 52 47 44 43 41 35 24 10 359 349 336 315 291 274 267 261 255 252 254 256 252 243 237 236 235 232 230 229 231 232 233 232 230 229 230 233 235 236 237 235 234 236 241 244 245 245 245 244 243 244 244 243 242 242